Wetbulb
34.38 33.50 32.79 32.23 31.32 30.09 29.08 28.79 29.35 28.75 28.48 28.50 28.54 28.43 28.83 27.71 27.20 26.94 26.44 25.95 26.59 26.83
32.43 31.96 31.20 30.83 30.27 29.11 29.26 30.42 28.96 28.29 27.52 27.57 27.56 27.42 27.48 26.14 25.22 25.38 25.54 24.88 25.23 25.56
31.65 31.36 30.82 30.31 29.08 28.20 28.23 28.67 27.93 27.00 26.96 26.87 26.29 25.87 25.58 24.52 24.71 24.07 24.01 25.16 24.18 24.15
30.49 30.65 30.49 29.38 28.71 28.11 27.81 27.41 26.65 26.27 25.81 25.34 24.69 24.32 23.54 23.47 23.23 22.81 22.88 22.93 22.66 22.77
30.35 29.82 29.00 28.52 28.18 27.40 26.44 26.28 25.59 25.47 24.81 24.44 24.06 23.30 23.06 22.34 22.48 21.96 21.87 22.41 21.94 21.11
28.41 28.21 27.63 27.25 27.05 26.75 25.53 24.80 24.34 24.12 23.65 23.27 23.10 22.40 22.55 22.09 21.95 21.43 21.52 21.62 21.33 20.79
27.85 27.83 27.60 27.13 26.44 25.90 25.22 23.99 22.97 23.16 22.81 22.33 21.93 22.03 22.40 22.49 21.40 21.23 21.75 22.11 21.46 20.63
27.89 27.97 27.62 26.75 25.76 25.02 24.44 23.66 23.39 22.41 21.41 21.19 21.14 22.12 21.25 22.46 21.50 21.16 21.09 21.27 21.84 21.31
28.15 27.64 27.29 25.70 24.80 23.76 23.04 22.21 21.60 20.74 20.63 19.61 21.67 24.54 24.10 23.44 21.61 21.95 21.45 20.33 20.47 20.34
27.78 28.41 26.09 25.07 23.43 22.34 21.40 20.97 20.05 19.72 19.47 18.80 19.34 24.84 24.37 23.98 22.21 20.85 20.32 20.42 20.50 20.50
28.36 26.64 24.70 23.54 22.61 21.24 20.74 19.82 18.86 18.26 18.43 18.21 19.05 24.52 24.49 23.79 21.08 20.05 20.12 20.06 19.93 19.33
27.50 26.03 24.66 23.46 21.39 21.45 19.90 18.12 17.10 17.57 15.73 15.29 15.97 23.69 24.10 22.82 19.41 19.38 19.28 20.64 20.32 19.86
27.68 26.65 24.66 23.52 20.67 19.94 16.87 18.86 18.77 18.05 15.55 15.03 12.94 21.67 23.49 22.79 18.84 13.37 17.43 18.86 20.85 23.01
25.89 25.65 24.63 21.99 18.11 18.30 16.04 17.82 14.79 14.94 14.52 13.63 14.10 13.75 21.89 23.20 19.77 17.03 15.57 16.68 17.84 20.29
MSLP
1026.74 1027.28 1028.01 1028.73 1029.47 1030.21 1030.85 1031.33 1031.57 1031.87 1031.80 1031.95 1032.28 1032.43 1032.85 1033.16 1033.50 1033.88 1033.96 1034.01 1034.10 1034.02
1027.05 1027.63 1028.31 1029.04 1029.71 1030.29 1030.64 1031.04 1031.58 1031.87 1032.10 1032.20 1032.58 1032.80 1033.03 1033.54 1033.85 1033.99 1034.21 1034.02 1034.13 1034.25
1027.22 1027.79 1028.41 1029.06 1029.85 1030.37 1030.67 1031.12 1031.68 1032.15 1032.36 1032.67 1033.22 1033.13 1033.60 1033.71 1034.04 1034.08 1034.46 1034.04 1034.16 1034.16
1027.15 1027.84 1028.27 1029.08 1029.91 1030.44 1030.87 1031.17 1031.69 1032.12 1032.35 1032.69 1033.25 1033.43 1033.95 1033.97 1033.90 1034.33 1034.30 1034.39 1034.24 1034.04
1027.34 1027.82 1028.49 1029.29 1029.86 1030.27 1030.84 1031.27 1031.84 1032.11 1032.48 1032.79 1033.12 1033.26 1033.64 1033.79 1034.18 1034.03 1034.17 1034.40 1034.18 1033.94
1027.57 1027.83 1028.34 1028.96 1029.76 1030.22 1030.58 1031.01 1031.46 1031.87 1032.34 1032.68 1033.08 1033.37 1033.53 1033.69 1033.97 1033.64 1034.53 1034.27 1033.96 1033.94
1027.17 1027.55 1028.22 1028.85 1029.46 1029.89 1030.32 1031.19 1031.68 1031.93 1032.65 1032.75 1032.98 1033.20 1033.67 1033.64 1033.54 1033.91 1034.18 1033.80 1033.68 1033.78
1026.72 1027.50 1028.17 1028.83 1029.42 1029.97 1030.39 1030.99 1031.43 1032.05 1032.43 1032.61 1033.03 1033.03 1033.40 1033.40 1033.58 1033.67 1033.86 1033.53 1033.41 1033.35
1026.27 1027.03 1027.82 1028.41 1029.01 1029.51 1030.35 1030.82 1031.28 1031.80 1032.24 1032.67 1032.81 1032.69 1032.84 1032.99 1033.33 1033.44 1033.53 1033.28 1033.15 1033.11
1025.90 1026.60 1027.15 1027.84 1028.60 1029.41 1030.11 1030.71 1031.18 1031.65 1032.04 1032.34 1032.55 1032.31 1032.30 1032.75 1032.77 1033.08 1033.14 1033.06 1032.91 1032.75
1025.31 1026.10 1026.91 1027.71 1028.40 1029.08 1029.78 1030.32 1030.84 1031.30 1031.64 1032.02 1032.01 1031.86 1031.77 1032.07 1032.44 1032.68 1032.61 1032.43 1032.41 1032.29
1024.84 1025.87 1026.74 1027.40 1027.96 1028.71 1029.38 1029.85 1030.26 1030.79 1031.26 1031.48 1031.47 1031.08 1031.32 1031.57 1032.07 1032.15 1032.04 1031.87 1031.80 1031.69
1024.24 1024.95 1025.78 1026.64 1027.55 1028.20 1028.67 1029.20 1029.80 1030.26 1030.57 1030.84 1031.26 1030.87 1030.76 1030.86 1031.53 1031.63 1031.56 1031.40 1031.07 1030.89
1023.64 1024.22 1024.93 1025.92 1026.89 1027.54 1028.15 1028.86 1029.31 1029.63 1029.84 1030.21 1030.40 1030.78 1030.16 1030.21 1030.58 1030.82 1030.87 1030.71 1030.45 1030.35
Wind_Speed
8 6 5 6 5 5 4 4 6 6 6 7 7 7 6 5 5 5 5 6 5 3
7 8 7 8 7 5 6 5 6 6 6 7 7 6 6 4 4 5 3 3 4 2
7 8 7 7 8 7 6 6 6 6 6 6 6 6 5 4 3 4 3 2 3 3
7 8 7 7 7 7 7 7 7 6 6 6 4 4 3 3 3 3 2 3 2 3
7 7 8 7 7 8 7 7 7 6 5 5 4 3 3 2 1 1 2 3 3 3
7 8 8 8 8 7 7 7 6 6 6 5 4 3 3 2 1 1 3 3 3 3
9 8 8 8 8 7 7 7 6 5 5 4 4 3 4 3 2 3 4 4 3 4
8 7 8 8 7 7 7 6 6 6 4 4 4 3 4 2 3 4 5 5 4 4
9 8 8 8 8 7 7 6 6 5 5 5 3 8 8 5 3 4 6 5 5 4
10 11 10 10 9 8 7 6 6 6 6 6 5 10 9 9 4 5 5 6 6 6
12 11 9 10 9 7 6 8 6 6 6 6 6 12 10 10 5 6 8 7 7 6
11 11 11 11 10 8 8 6 6 4 7 7 5 12 12 9 4 7 9 8 7 7
11 12 13 11 11 7 5 7 7 6 7 7 7 14 14 11 4 5 7 7 8 12
11 12 11 9 6 8 6 6 7 7 5 7 8 9 15 15 7 7 6 6 5 5
Wind_Direction
121 126 121 118 116 116 114 109 96 82 79 76 65 55 61 59 52 44 45 38 31 12
112 107 113 108 108 119 119 111 101 98 91 81 72 68 81 76 64 47 45 40 25 360
128 123 125 120 126 124 120 117 112 98 86 78 74 65 71 69 58 58 16 44 19 2
137 136 129 123 128 132 128 126 121 114 109 107 103 82 71 83 83 39 6 344 10 334
139 135 130 134 138 142 138 124 132 131 132 132 126 120 131 107 38 14 331 303 328 323
151 147 150 149 149 149 145 143 142 149 152 156 159 168 182 155 258 315 278 284 301 306
168 164 158 151 153 154 151 153 161 159 164 167 179 192 209 205 247 268 268 282 281 275
164 156 153 153 154 154 156 162 161 161 166 183 203 210 197 225 254 268 273 276 268 257
162 160 161 155 160 151 158 159 157 171 183 205 219 225 212 223 242 268 273 272 266 273
164 172 169 159 153 159 174 165 176 186 190 207 218 228 222 238 243 261 263 268 270 273
174 175 162 159 169 167 168 179 175 189 196 207 219 230 227 235 235 252 257 251 253 252
177 171 167 179 178 183 173 173 180 180 193 203 213 230 230 232 234 254 259 257 252 247
179 177 183 185 182 178 173 188 184 194 194 204 216 231 235 232 221 244 255 254 258 253
179 183 185 171 159 172 168 166 183 196 198 207 206 225 241 241 227 234 246 247 248 250